Time,TemperatureF,DewpointF,PressureIn,WindDirection,WindDirectionDegrees,WindSpeedMPH,WindSpeedGustMPH,Humidity,HourlyPrecipIn,Conditions,Clouds,dailyrainin,SoftwareType,DateUTC
2013-08-18 00:03:00,-999.0,-99.9,-100.00,NNE,30,0.0,-999.0,-999,-99.99,,,-99.99,,2013-08-18 04:03:00,
2013-08-18 00:23:00,64.0,-99.9,-100.00,NNE,30,0.0,-999.0,-999,-99.99,,,-99.99,,2013-08-18 04:23:00,
2013-08-18 00:53:00,63.0,-99.9,-100.00,NNE,30,0.0,-999.0,-999,-99.99,,,-99.99,,2013-08-18 04:53:00,
2013-08-18 01:12:00,63.0,-99.9,-100.00,NNE,30,0.0,-999.0,-999,-99.99,,,-99.99,,2013-08-18 05:12:00,
2013-08-18 01:22:00,63.0,-99.9,-100.00,NNE,30,0.0,-999.0,-999,-99.99,,,-99.99,,2013-08-18 05:22:00,
2013-08-18 01:52:00,63.0,-99.9,-100.00,NNE,30,0.0,-999.0,-999,-99.99,,,-99.99,,2013-08-18 05:52:00,
2013-08-18 02:22:00,62.0,-99.9,-100.00,NNE,30,0.0,-999.0,-999,-99.99,,,-99.99,,2013-08-18 06:22:00,
2013-08-18 02:52:00,61.0,-99.9,-100.00,NNE,30,0.0,-999.0,-999,-99.99,,,-99.99,,2013-08-18 06:52:00,
2013-08-18 03:22:00,61.0,-99.9,-100.00,NNE,30,0.0,-999.0,-999,-99.99,,,-99.99,,2013-08-18 07:22:00,
2013-08-18 03:52:00,60.0,-99.9,-100.00,NNE,30,0.0,-999.0,-999,-99.99,,,-99.99,,2013-08-18 07:52:00,
2013-08-18 04:12:00,60.0,-99.9,-100.00,NNE,30,0.0,-999.0,-999,-99.99,,,-99.99,,2013-08-18 08:12:00,
2013-08-18 04:22:00,59.0,-99.9,-100.00,NNE,30,0.0,-999.0,-999,-99.99,,,-99.99,,2013-08-18 08:22:00,
2013-08-18 04:52:00,60.0,-99.9,-100.00,NNE,30,0.0,-999.0,-999,-99.99,,,-99.99,,2013-08-18 08:52:00,
2013-08-18 05:22:00,59.0,-99.9,-100.00,NNE,30,0.0,-999.0,-999,-99.99,,,-99.99,,2013-08-18 09:22:00,
2013-08-18 05:53:00,58.0,-99.9,-100.00,NNE,30,0.0,-999.0,-999,-99.99,,,-99.99,,2013-08-18 09:53:00,
2013-08-18 06:23:00,58.0,-99.9,-100.00,NNE,30,0.0,-999.0,-999,-99.99,,,-99.99,,2013-08-18 10:23:00,
2013-08-18 06:52:00,58.0,-99.9,-100.00,NNE,30,0.0,-999.0,-999,-99.99,,,-99.99,,2013-08-18 10:52:00,
2013-08-18 07:11:00,58.0,-99.9,-100.00,NNE,30,0.0,-999.0,-999,-99.99,,,-99.99,,2013-08-18 11:11:00,
2013-08-18 07:22:00,58.0,-99.9,-100.00,NNE,30,0.0,-999.0,-999,-99.99,,,-99.99,,2013-08-18 11:22:00,
2013-08-18 07:52:00,58.0,-99.9,-100.00,NNE,30,0.0,-999.0,-999,-99.99,,,-99.99,,2013-08-18 11:52:00,
2013-08-18 08:22:00,59.0,-99.9,-100.00,NNE,30,0.0,-999.0,-999,-99.99,,,-99.99,,2013-08-18 12:22:00,
2013-08-18 08:52:00,61.0,-99.9,-100.00,NNE,30,0.0,-999.0,-999,-99.99,,,-99.99,,2013-08-18 12:52:00,
2013-08-18 09:11:00,63.0,-99.9,-100.00,ENE,76,3.0,-999.0,-999,-99.99,,,-99.99,,2013-08-18 13:11:00,
2013-08-18 09:21:00,63.0,-99.9,-100.00,ENE,76,3.0,-999.0,-999,-99.99,,,-99.99,,2013-08-18 13:21:00,
2013-08-18 09:32:00,63.0,-99.9,-100.00,ENE,76,3.0,-999.0,-999,-99.99,,,-99.99,,2013-08-18 13:32:00,
2013-08-18 10:22:00,69.0,-99.9,-100.00,NE,52,0.0,-999.0,-999,-99.99,,,-99.99,,2013-08-18 14:22:00,
2013-08-18 10:53:00,73.0,-99.9,-100.00,NE,34,0.0,-999.0,-999,-99.99,,,-99.99,,2013-08-18 14:53:00,
2013-08-18 11:22:00,73.0,-99.9,-100.00,ENE,72,0.0,-999.0,-999,-99.99,,,-99.99,,2013-08-18 15:22:00,
2013-08-18 11:54:00,77.0,-99.9,-100.00,East,81,1.0,-999.0,-999,-99.99,,,-99.99,,2013-08-18 15:54:00,
2013-08-18 12:23:00,77.0,-99.9,-100.00,NE,56,0.0,-999.0,-999,-99.99,,,-99.99,,2013-08-18 16:23:00,
2013-08-18 12:52:00,78.0,-99.9,-100.00,NNE,14,0.0,-999.0,-999,-99.99,,,-99.99,,2013-08-18 16:52:00,
2013-08-18 13:24:00,79.0,-99.9,-100.00,East,80,0.0,-999.0,-999,-99.99,,,-99.99,,2013-08-18 17:24:00,
2013-08-18 13:52:00,80.0,-99.9,-100.00,ENE,68,0.0,-999.0,-999,-99.99,,,-99.99,,2013-08-18 17:52:00,
2013-08-18 14:22:00,83.0,-99.9,-100.00,ESE,106,1.0,-999.0,-999,-99.99,,,-99.99,,2013-08-18 18:22:00,
2013-08-18 14:52:00,80.0,-99.9,-100.00,NE,51,4.0,-999.0,-999,-99.99,,,-99.99,,2013-08-18 18:52:00,
2013-08-18 15:22:00,80.0,-99.9,-100.00,East,88,0.0,-999.0,-999,-99.99,,,-99.99,,2013-08-18 19:22:00,
2013-08-18 15:52:00,81.0,-99.9,-100.00,East,81,4.0,-999.0,-999,-99.99,,,-99.99,,2013-08-18 19:52:00,
2013-08-18 16:22:00,81.0,-99.9,-100.00,East,93,6.0,-999.0,-999,-99.99,,,-99.99,,2013-08-18 20:22:00,
2013-08-18 16:52:00,80.0,-99.9,-100.00,East,91,0.0,-999.0,-999,-99.99,,,-99.99,,2013-08-18 20:52:00,
2013-08-18 17:22:00,81.0,-99.9,-100.00,East,83,6.0,-999.0,-999,-99.99,,,-99.99,,2013-08-18 21:22:00,
2013-08-18 17:54:00,79.0,-99.9,-100.00,North,0,0.0,-999.0,-999,-99.99,,,-99.99,,2013-08-18 21:54:00,
2013-08-18 18:23:00,80.0,-99.9,-100.00,East,96,2.0,-999.0,-999,-99.99,,,-99.99,,2013-08-18 22:23:00,
2013-08-18 18:52:00,77.0,-99.9,-100.00,ENE,74,0.0,-999.0,-999,-99.99,,,-99.99,,2013-08-18 22:52:00,
2013-08-18 19:22:00,78.0,-99.9,-100.00,NE,44,0.0,-999.0,-999,-99.99,,,-99.99,,2013-08-18 23:22:00,
2013-08-18 19:52:00,77.0,-99.9,-100.00,ENE,71,0.0,-999.0,-999,-99.99,,,-99.99,,2013-08-18 23:52:00,
2013-08-18 20:12:00,77.0,-99.9,-100.00,East,93,0.0,-999.0,-999,-99.99,,,-99.99,,2013-08-19 00:12:00,
2013-08-18 20:22:00,76.0,-99.9,-100.00,East,93,0.0,-999.0,-999,-99.99,,,-99.99,,2013-08-19 00:22:00,
2013-08-18 20:42:00,75.0,-99.9,-100.00,East,93,0.0,-999.0,-999,-99.99,,,-99.99,,2013-08-19 00:42:00,
2013-08-18 20:52:00,74.0,-99.9,-100.00,East,93,0.0,-999.0,-999,-99.99,,,-99.99,,2013-08-19 00:52:00,
2013-08-18 21:12:00,73.0,-99.9,-100.00,East,93,0.0,-999.0,-999,-99.99,,,-99.99,,2013-08-19 01:12:00,
2013-08-18 21:22:00,72.0,-99.9,-100.00,East,93,0.0,-999.0,-999,-99.99,,,-99.99,,2013-08-19 01:22:00,
2013-08-18 21:42:00,71.0,-99.9,-100.00,East,93,0.0,-999.0,-999,-99.99,,,-99.99,,2013-08-19 01:42:00,
2013-08-18 21:52:00,70.0,-99.9,-100.00,East,93,0.0,-999.0,-999,-99.99,,,-99.99,,2013-08-19 01:52:00,
2013-08-18 22:22:00,69.0,-99.9,-100.00,East,93,0.0,-999.0,-999,-99.99,,,-99.99,,2013-08-19 02:22:00,
2013-08-18 22:52:00,68.0,-99.9,-100.00,East,93,0.0,-999.0,-999,-99.99,,,-99.99,,2013-08-19 02:52:00,
2013-08-18 23:22:00,67.0,-99.9,-100.00,East,93,0.0,-999.0,-999,-99.99,,,-99.99,,2013-08-19 03:22:00,
2013-08-18 23:53:00,66.0,-99.9,-100.00,East,93,0.0,-999.0,-999,-99.99,,,-99.99,,2013-08-19 03:53:00,